Location: Heilwood
(40.6210°N, 78.9150°W)
Time: 14:38:11
(UTC-04:00)

BREEZE-M DEB (TANK) - Visible Passes

Search period start: 28 June 2016 00:00
Search period end: 08 July 2016 00:00
Orbit: 286 x 15905 km, 49.5° (Epoch: 27 June)

Date Brightness Start Highest point End Pass type
(mag) Time Alt. Az. Time Alt. Az. Time Alt. Az.
28 Jun 8.1 01:01:29 10° NW 02:58:23 61° W 04:20:03 10° S visible
28 Jun 8.8 19:46:41 10° WSW 20:24:30 78° NNW 23:10:16 10° ESE visible
29 Jun 8.1 01:06:42 10° NW 03:01:38 58° W 04:23:44 10° S visible
29 Jun 8.9 19:51:17 10° W 20:31:14 77° N 23:16:02 10° ESE visible
30 Jun 8.1 01:11:56 10° NW 03:04:44 56° W 04:27:20 10° S visible
30 Jun 8.9 19:55:53 10° W 20:38:11 77° N 23:21:40 10° ESE visible
01 Jul 8.1 01:17:09 10° NW 03:07:42 54° W 04:30:48 10° SSW visible
01 Jul 8.8 20:00:29 10° W 20:45:21 77° N 23:27:11 10° ESE visible
02 Jul 8.1 01:22:23 10° NW 03:10:33 51° W 04:34:10 10° SSW visible
02 Jul 8.8 20:05:06 10° W 20:52:46 76° N 23:32:34 10° ESE visible
03 Jul 8.1 01:27:37 10° NW 03:13:16 49° W 04:37:24 10° SSW visible
03 Jul 8.7 20:09:42 10° W 21:00:25 77° N 23:37:51 10° ESE visible
04 Jul 8.2 01:32:53 10° NW 03:15:54 47° W 04:40:29 10° SSW visible
04 Jul 8.7 20:14:19 10° W 21:08:17 77° N 23:43:01 10° ESE visible
05 Jul 8.2 01:38:09 10° NW 03:18:25 44° W 04:43:24 10° SSW visible
05 Jul 8.7 20:18:56 10° W 21:16:23 77° NNE 23:48:06 10° SE visible
06 Jul 8.2 01:43:27 10° NW 03:20:53 42° W 04:46:08 10° SSW visible
06 Jul 8.6 20:23:32 10° W 21:24:37 78° NNE 23:53:03 10° SE visible
07 Jul 8.2 01:48:47 10° NW 03:23:16 40° W 04:48:39 10° SW visible
07 Jul 8.6 20:28:09 10° W 21:32:56 79° NNE 23:57:56 10° SE visible
